Location: Unspecified
(33.6682°S, 0.0000°E)
Time: 17:05:45
(UTC+00:00)

Tiros 1 despin weight - Pass Details

Date: 23 June 2019
Orbit: 594 x 642 km, 48.2° (Epoch: 17 July)

Event Time Altitude Azimuth Distance (km) Brightness Sun altitude
Rises 17:14:11 0° 235° (SW) 2,969 ? -3.5°
Reaches altitude 10° 17:16:33 10° 237° (WSW) 2,053 ? -4.0°
Maximum altitude 17:21:15 67° 318° (NW) 700 ? -4.8°
Drops below altitude 10° 17:25:53 10° 40° (NE) 2,018 ? -5.7°
Sets 17:28:11 0° 43° (NE) 2,913 ? -6.2°
